Location: Eurasberg
(48.3353°N, 11.0839°E)
Time: 19:05:40
(UTC+00:00)

Cosmos 2082 Rocket - Pass Details

Date: 18 January 2026
Orbit: 831 x 853 km, 71.0° (Epoch: 13 February)

Event Time Altitude Azimuth Distance (km) Brightness Sun altitude
Exits shadow 05:53:52 11° 312° (NW) 2,380 4.0 -10.8°
Maximum altitude 05:58:22 29° 256° (WSW) 1,509 3.1 -10.0°
Drops below altitude 10° 06:03:10 10° 198° (SSW) 2,470 4.7 -9.3°
Sets 06:05:53 0° 187° (S) 3,404 5.5 -8.9°
